Regional Weather Roundup
Issued by NWS

Home | Current Version | Previous Version | Graphics & Text | Print | Product List | Glossary On
Versions: 1 2 3 4 5 6 7 8 9 10 11 12 13 14 15 16 17 18 19 20 21 22 23 24 25 26 27 28 29 30 31 32 33 34 35 36 37 38 39 40 41 42 43 44 45 46 47 48 49 50
000
ASUS43 KLMK 240102
RWRKY
KENTUCKY REGIONAL WEATHER ROUNDUP
NATIONAL WEATHER SERVICE LOUISVILLE KY
900 PM EDT WED APR 23 2014

NOTE "FAIR" INDICATES FEW OR NO CLOUDS BELOW 12,000 FEET
WITH NO SIGNIFICANT WEATHER AND/OR OBSTRUCTIONS TO VISIBILITY.

KYZ001>023-026-027-061>063-070>075-240200-
WESTERN AND SOUTH CENTRAL KENTUCKY

CITY           SKY/WX    TMP DP  RH WIND       PRES   REMARKS
PADUCAH        CLEAR     62  36  37 E6        29.98S
HENDERSON      PTCLDY    57  37  47 N3        30.02R
OWENSBORO      CLEAR     61  31  32 N7        30.03R
HOPKINSVILLE   CLEAR     60  36  41 N2        30.00R
BOWLING GREEN  CLEAR     58  29  33 NE5       30.02R
GLASGOW        NOT AVBL
$$

KYZ024-025-028>034-038-045-046-053-240200-
NORTH CENTRAL KENTUCKY

CITY           SKY/WX    TMP DP  RH WIND       PRES   REMARKS
LOUISVILLE/SDF PTCLDY    60  30  32 N7        30.05R
LOUISVILLE/LOU CLEAR     61  30  31 CALM      30.06R
FORT KNOX      CLEAR     57  29  34 NE5       30.04R
$$

KYZ035>037-039>044-047>052-055>060-089>105-240200-
NORTHEAST KENTUCKY

CITY           SKY/WX    TMP DP  RH WIND       PRES   REMARKS
LEXINGTON      CLEAR     54  32  43 NE5       30.06R
COVINGTON      PTCLDY    54  32  43 N7        30.07R
FRANKFORT      CLEAR     55  32  41 N3        30.05R
$$

KYZ054-064>069-076>088-106>120-240200-
SOUTHEAST KENTUCKY

CITY           SKY/WX    TMP DP  RH WIND       PRES   REMARKS
JACKSON        CLEAR     55  28  35 VRB6      30.04R
LONDON         CLEAR     57  31  37 N7        30.03R
SOMERSET       NOT AVBL
MIDDLESBORO    NOT AVBL
MONTICELLO     CLEAR     53  36  52 N6        30.05R
$$




USA.gov is the U.S. government's official web portal to all federal, state and local government web resources and services.